Tracking 20093 objects as of 16-Dec-2019
HD Live streaming from Space Station
objects crossing your sky now

COSMOS 2251 DEB

Track COSMOS 2251 DEB now!
10-day predictions


NORAD ID: 35721
Int'l Code: 1993-036AQS
Perigee: 709.5 km
Apogee: 968.4 km
Inclination: 74.0 °
Period: 101.5 minutes
Semi major axis: 7209 km
RCS: 0.0071 m2 (small)
Launch date: June 16, 1993
Source: Commonwealth of Independent States (former USSR) (CIS)
Launch site: PLESETSK MISSILE AND SPACE COMPLEX (PKMTR)

Note: This is SATELLITE DEBRIS
aabbcc
Your satellite tracking list
Your tracking list is empty




NASA's NSSDC Master Catalog

Two Line Element Set (TLE):
1 35721U 93036AQS 19348.81867038  .00000319  00000-0  14289-3 0  9995
2 35721  73.9520 175.5955 0179537  77.0278 285.0845 14.18092971544137
Source of the keplerian elements: AFSPC